Location: Newark
(43.0658°N, 122.2322°W)
Time: 17:41:42
(UTC+00:00)

STARLINK-1759 - Pass Details

Date: 21 September 2020
Orbit: 548 x 551 km, 53.0° (Epoch: 28 October)

Event Time Altitude Azimuth Distance (km) Brightness Sun altitude
Exits shadow 12:04:33 17° 326° (NW) 1,459 5.6 -20.7°
Maximum altitude 12:06:13 21° 357° (N) 1,288 5.7 -20.4°
Drops below altitude 10° 12:09:23 10° 47° (NE) 1,830 7.3 -19.8°
Sets 12:12:05 0° 64° (ENE) 2,724 8.8 -19.4°
